Shawbury, United Kingdom

7:06 AM GMT on February 13, 2016 (GMT +0000)
Shawbury Air Base

Weather History for EGOS - May, 2013

Change the Weather History Date:

Monday, May 20, 2013

  Actual Average Record
Temperature  
Mean Temperature 52 °F -  
Max Temperature 60 °F 61 °F - ()
Min Temperature 43 °F 46 °F - ()
Degree Days  
Heating Degree Days 14    
Growing Degree Days 2 (Base 50)    
Moisture  
Dew Point 50 °F    
Average Humidity 86    
Maximum Humidity 94    
Minimum Humidity 75    
Precipitation  
Precipitation 0.00 in - - ()
Sea Level Pressure  
Sea Level Pressure 29.96 in    
Wind  
Wind Speed 8 mph ()    
Max Wind Speed 15 mph    
Max Gust Speed -    
Visibility 7.4 miles    
Events Rain    
T = Trace of Precipitation, MM = Missing Value Source: Averaged Metar Reports

Daily Weather History Graph

Daily Weather History Graph

Search for Another Location

Airport or City:

Trip Planner

Search our weather history database for the weather conditions in past years. The results will help you decide how hot, cold, wet, or windy it might be!

Date:

Astronomy

May. 20, 2013 Rise Set
Actual Time 5:05 AM BST 9:09 PM BST
Civil Twilight 4:20 AM BST 9:54 PM BST
Nautical Twilight 3:16 AM BST 11:00 PM BST
Astronomical Twilight 1:39 AM BST 12:34 AM BST
Moon 3:22 PM BST (5/20) 2:36 AM BST (5/20)
Length of Visible Light 17h 33m
Length of Day
16h 03m
Waxing Gibbous, 73% of the Moon is Illuminated
May 20
Waxing Gibbous
May 25
Full
May 31
Last Quarter
Jun 8
New
Jun 16
First Quarter

Hourly Weather History & Observations

Time (BST) Temp. Windchill Dew Point Humidity Pressure Visibility Wind Dir Wind Speed Gust Speed Precip Events Conditions
12:50 AM 46 °F - 43 °F 84% 29.99 in 16 mi NW 3.5 mph - -  
12:50 AM 46.4 °F 45.2 °F 42.8 °F 87% 29.98 in 6.2 mi NW 3.5 mph - N/A   Unknown
1:50 AM 46.4 °F 42.9 °F 44.6 °F 93% 29.95 in 6.2 mi NW 6.9 mph - N/A   Partly Cloudy
2:50 AM 44.6 °F 42.2 °F 42.8 °F 93% 29.95 in 6.2 mi WNW 4.6 mph - N/A   Partly Cloudy
3:50 AM 48 °F - 46 °F 91% 29.96 in 9 mi NW 5.8 mph - -   Scattered Clouds
3:50 AM 48.2 °F - 46.4 °F 93% 29.95 in 6.2 mi NW 5.8 mph - N/A   Mostly Cloudy
4:50 AM 50.0 °F - 46.4 °F 87% 29.92 in 6.2 mi WNW 8.1 mph - N/A   Mostly Cloudy
5:50 AM 50.0 °F - 48.2 °F 94% 29.92 in - WNW 6.9 mph - N/A Rain Heavy Rain
6:50 AM 52 °F - 50 °F 89% 29.94 in 9 mi NW 9.2 mph - - Rain Light Rain
6:50 AM 51.8 °F - 50.0 °F 94% 29.92 in 6.2 mi NW 9.2 mph - N/A   Overcast
7:50 AM 53.6 °F - 51.8 °F 94% 29.92 in 6.2 mi NW 10.4 mph - N/A   Mostly Cloudy
8:50 AM 55.4 °F - 51.8 °F 88% 29.92 in 6.2 mi NNW 12.7 mph - N/A   Mostly Cloudy
9:50 AM 55 °F - 51 °F 82% 29.94 in 12 mi NNW 12.7 mph - -   Overcast
9:50 AM 55.4 °F - 51.8 °F 88% 29.92 in 6.2 mi NNW 12.7 mph - N/A   Mostly Cloudy
10:50 AM 57.2 °F - 51.8 °F 82% 29.95 in 6.2 mi NNW 10.4 mph - N/A   Overcast
11:50 AM 57.2 °F - 51.8 °F 82% 29.95 in 6.2 mi NNW 13.8 mph - N/A   Mostly Cloudy
12:50 PM 56 °F - 52 °F 81% 29.96 in 12 mi NW 13.8 mph - -   Overcast
12:50 PM 57.2 °F - 51.8 °F 82% 29.95 in 6.2 mi NW 13.8 mph - N/A   Overcast
1:50 PM 57.2 °F - 51.8 °F 82% 29.95 in 6.2 mi NW 12.7 mph - N/A   Overcast
2:50 PM 59.0 °F - 53.6 °F 82% 29.95 in 6.2 mi NW 13.8 mph - N/A   Mostly Cloudy
3:50 PM 59 °F - 53 °F 75% 29.96 in 10 mi NNW 15.0 mph - -   Overcast
3:50 PM 59.0 °F - 53.6 °F 82% 29.95 in 6.2 mi NNW 15.0 mph - N/A   Mostly Cloudy
4:50 PM 59.0 °F - 53.6 °F 82% 29.95 in 6.2 mi NNW 13.8 mph - N/A   Mostly Cloudy
5:50 PM 59.0 °F - 53.6 °F 82% 29.95 in 6.2 mi NW 11.5 mph - N/A   Mostly Cloudy
6:50 PM 58 °F - 54 °F 80% 29.97 in 9 mi NNW 8.1 mph - -   Mostly Cloudy
6:50 PM 59.0 °F - 53.6 °F 82% 29.95 in 6.2 mi NNW 8.1 mph - N/A   Mostly Cloudy
7:50 PM 57.2 °F - 51.8 °F 82% 29.98 in 6.2 mi NNW 12.7 mph - N/A   Mostly Cloudy
8:50 PM 55.4 °F - 53.6 °F 94% 29.98 in 6.2 mi NNW 9.2 mph - N/A   Mostly Cloudy
9:50 PM 56 °F - 52 °F 83% 30.00 in 9 mi NW 9.2 mph - -   Overcast
9:50 PM 55.4 °F - 51.8 °F 88% 29.98 in 6.2 mi NW 9.2 mph - N/A   Mostly Cloudy
10:50 PM 53.6 °F - 51.8 °F 94% 30.01 in 6.2 mi NNW 11.5 mph - N/A   Mostly Cloudy
11:50 PM 53.6 °F - 50.0 °F 88% 30.01 in 6.2 mi North 10.4 mph - N/A   Scattered Clouds